Location: ?????? ??????
(44.3742°N, 135.2221°E)
Time: 13:17:21
(UTC+00:00)

Terra - Pass Details

Date: 19 May 2025
Orbit: 690 x 691 km, 98.0° (Epoch: 20 June)

Event Time Altitude Azimuth Distance (km) Brightness Sun altitude
Exits shadow 12:36:58 13° 207° (SSW) 1,967 3.8 -18.4°
Maximum altitude 12:40:34 30° 264° (W) 1,231 3.3 -18.7°
Drops below altitude 10° 12:44:43 10° 326° (NW) 2,151 5.6 -19.1°
Sets 12:47:13 0° 337° (NNW) 3,073 6.7 -19.4°
